Date,TemperatureHighF,TemperatureAvgF,TemperatureLowF,DewpointHighF,DewpointAvgF,DewpointLowF,HumidityHigh,HumidityAvg,HumidityLow,PressureMaxIn,PressureMinIn,WindSpeedMaxMPH,WindSpeedAvgMPH,GustSpeedMaxMPH,PrecipitationSumIn
2013-4-28,81,64,49,53,48,43,80,59,36,29.88,29.63,0,0,0,0.00
2013-4-29,78,61,46,55,46,40,80,61,36,29.82,29.53,0,0,0,0.00
2013-4-30,68,63,54,58,46,32,83,57,28,29.97,29.41,0,0,0,0.00
2013-5-1,54,41,33,36,32,28,88,72,50,30.44,29.96,0,0,0,0.00
2013-5-2,49,40,35,29,27,24,73,60,45,30.51,30.39,0,0,0,0.00
2013-5-3,38,35,31,32,28,23,85,75,61,30.39,30.13,0,0,0,0.00
2013-5-4,48,39,33,41,35,29,89,85,76,30.16,30.08,0,0,0,0.00
2013-5-5,67,50,38,51,42,35,88,74,55,30.16,30.06,0,0,0,0.00
2013-5-6,78,60,44,53,47,41,88,64,39,30.10,29.99,0,0,0,0.00
2013-5-7,80,66,51,56,49,45,81,58,36,30.06,29.94,0,0,0,0.00
2013-5-8,79,65,58,54,51,47,86,63,40,30.00,29.93,0,0,0,0.00
2013-5-9,62,54,44,54,47,31,86,77,58,30.09,29.94,0,0,0,0.00
2013-5-10,70,53,37,36,31,28,71,46,24,30.10,29.86,0,0,0,0.00
2013-5-11,56,47,40,40,28,21,67,47,32,30.16,29.86,0,0,0,0.00
2013-5-12,62,47,33,28,24,21,66,44,22,30.22,30.07,0,0,0,0.00
2013-5-13,77,57,40,49,36,23,58,47,36,30.09,29.64,0,0,0,0.00
2013-5-14,96,74,53,60,47,32,68,43,17,29.70,29.46,0,0,0,0.00
2013-5-15,81,67,53,51,46,42,67,50,34,29.92,29.69,0,0,0,0.00
2013-5-16,85,70,54,50,45,34,68,43,27,29.91,29.83,0,0,0,0.00
2013-5-17,66,58,56,54,50,39,91,76,38,29.98,29.88,0,0,0,0.00
2013-5-18,84,66,56,69,60,53,94,81,58,29.98,29.77,0,0,0,0.00
2013-5-19,81,69,63,69,64,61,93,83,65,29.80,29.54,0,0,0,0.00
2013-5-20,74,66,60,63,60,55,94,80,62,29.57,29.49,0,0,0,0.00
2013-5-21,62,57,48,58,54,46,92,90,84,29.71,29.51,0,0,0,0.00
2013-5-22,53,49,45,50,46,43,93,90,75,29.99,29.70,0,0,0,0.00
2013-5-23,71,55,44,44,38,32,85,57,30,30.32,29.99,0,0,0,0.00
2013-5-24,72,56,40,49,40,29,82,57,40,30.36,30.13,0,0,0,0.00
2013-5-25,63,56,52,52,48,44,86,76,65,30.23,30.19,0,0,0,0.00
2013-5-26,57,55,51,49,45,41,76,70,60,30.20,30.01,0,0,0,0.00
2013-5-27,65,57,53,55,52,48,90,82,69,30.03,29.82,0,0,0,0.00
2013-5-28,63,57,53,57,54,50,92,88,82,29.82,29.71,0,0,0,0.00
2013-5-29,79,66,53,71,61,51,94,85,74,29.82,29.64,0,0,0,0.00
2013-5-30,78,69,63,66,63,60,94,83,66,29.67,29.52,0,0,0,0.00
2013-5-31,77,68,61,61,57,52,92,70,49,29.56,29.51,0,0,0,0.00
2013-6-1,74,60,51,61,52,44,86,75,56,29.94,29.54,0,0,0,0.00
2013-6-2,70,57,47,46,44,41,81,62,41,30.08,29.94,0,0,0,0.00
2013-6-3,72,61,47,50,46,42,85,60,42,30.06,29.91,0,0,0,0.00
2013-6-4,64,59,54,54,50,46,87,72,57,30.06,29.96,0,0,0,0.00
2013-6-5,70,58,53,61,53,49,92,85,72,30.03,29.93,0,0,0,0.00
2013-6-6,58,54,51,52,50,48,91,87,80,30.03,29.96,0,0,0,0.00
2013-6-7,71,59,53,56,52,50,90,77,56,30.05,29.91,0,0,0,0.00
2013-6-8,74,64,53,58,54,50,87,72,54,29.91,29.87,0,0,0,0.00
2013-6-9,70,62,56,63,57,54,91,86,75,29.88,29.76,0,0,0,0.00
2013-6-10,83,68,61,66,61,57,94,80,55,29.86,29.80,0,0,0,0.00
2013-6-11,79,68,58,69,63,55,91,83,69,29.90,29.80,0,0,0,0.00
2013-6-12,76,66,60,66,61,54,95,82,68,29.94,29.77,0,0,0,0.00
2013-6-13,84,69,56,60,55,50,81,63,43,30.10,29.93,0,0,0,0.00
2013-6-14,82,70,58,64,58,50,77,66,54,30.06,29.87,0,0,0,0.00
2013-6-15,84,71,64,69,64,60,90,79,59,29.91,29.85,0,0,0,0.00
2013-6-16,88,72,60,63,56,52,87,62,31,29.93,29.85,0,0,0,0.00
2013-6-17,84,72,60,61,58,54,81,61,41,30.01,29.87,0,0,0,0.00
2013-6-18,84,69,57,62,56,50,75,63,46,30.09,30.00,0,0,0,0.00
2013-6-19,89,75,61,67,60,54,79,62,42,30.05,29.93,0,0,0,0.00
2013-6-20,93,81,70,72,65,58,76,60,44,29.99,29.86,0,0,0,0.00
2013-6-21,86,74,63,72,66,60,90,77,61,30.03,29.76,0,0,0,0.00
2013-6-22,87,73,65,72,67,62,93,82,62,29.99,29.82,0,0,0,0.00
2013-6-23,86,76,68,71,68,63,94,76,56,29.89,29.68,0,0,0,0.00
2013-6-24,85,74,64,73,67,61,90,79,65,29.90,29.80,0,0,0,0.00
2013-6-25,92,78,65,77,70,62,91,77,62,29.83,29.71,0,0,0,0.00
2013-6-26,88,80,73,77,71,65,92,76,53,29.82,29.66,0,0,0,0.00
2013-6-27,87,78,70,68,62,57,83,60,38,29.84,29.80,0,0,0,0.00
2013-6-28,80,72,66,64,60,57,88,67,54,29.83,29.77,0,0,0,0.00
2013-6-29,80,70,63,64,59,51,90,71,45,29.98,29.76,0,0,0,0.00
2013-6-30,86,71,57,60,55,51,84,61,37,30.11,29.98,0,0,0,0.00
2013-7-1,88,75,61,64,59,55,87,61,37,30.18,30.11,0,0,0,0.00
2013-7-2,88,75,63,59,57,55,80,56,36,30.15,30.04,0,0,0,0.00
2013-7-3,91,74,62,63,59,56,86,62,34,30.07,29.95,0,0,0,0.00
2013-7-4,94,78,64,67,60,55,77,56,33,29.96,29.84,0,0,0,0.00
2013-7-5,89,79,68,68,63,56,72,57,45,29.90,29.79,0,0,0,0.00
2013-7-6,92,81,73,72,66,62,68,61,50,29.88,29.80,0,0,0,0.00
2013-7-7,95,82,72,76,70,66,96,68,51,29.89,29.81,0,0,0,0.00
2013-7-8,89,77,68,75,70,66,97,80,55,30.00,29.88,0,0,0,0.00
2013-7-9,85,78,69,73,69,64,93,76,61,29.95,29.73,0,0,0,0.00
2013-7-10,82,72,61,64,59,56,85,66,45,30.05,29.93,0,0,0,0.00
2013-7-11,88,75,62,65,61,57,88,64,39,30.11,29.96,0,0,0,0.00
2013-7-12,90,78,68,68,62,58,70,59,45,30.00,29.88,0,0,0,0.00
2013-7-13,82,73,67,72,65,59,93,76,60,30.07,29.90,0,0,0,0.00
2013-7-14,89,77,69,72,67,61,83,71,52,30.17,30.04,0,0,0,0.00
2013-7-15,90,80,69,72,68,64,84,69,52,30.23,30.15,0,0,0,0.00
2013-7-16,94,84,74,77,73,70,89,71,52,30.21,30.16,0,0,0,0.00
2013-7-17,95,84,74,75,72,68,81,67,50,30.24,30.10,0,0,0,0.00
2013-7-18,94,85,75,76,72,70,84,68,49,30.10,29.77,0,0,0,0.00
2013-7-19,84,79,71,71,65,60,81,64,48,29.92,29.73,0,0,0,0.00
2013-7-20,83,73,65,68,62,57,85,69,52,29.96,29.88,0,0,0,0.00
2013-7-21,85,73,60,70,62,53,86,71,60,29.96,29.79,0,0,0,0.00
2013-7-22,86,75,66,74,66,57,91,74,54,29.87,29.68,0,0,0,0.00
2013-7-23,77,68,60,58,56,52,85,66,46,30.02,29.86,0,0,0,0.00
2013-7-24,82,70,62,65,58,54,79,69,44,30.08,29.97,0,0,0,0.00
2013-7-25,83,73,62,69,62,57,86,70,47,29.98,29.91,0,0,0,0.00
2013-7-26,71,64,56,64,56,48,86,74,61,30.08,29.91,0,0,0,0.00
2013-7-27,66,58,52,51,49,47,86,71,55,30.08,29.94,0,0,0,0.00
2013-7-28,78,62,49,59,51,44,85,69,50,30.06,29.96,0,0,0,0.00
2013-7-29,79,67,54,62,56,50,87,69,49,30.12,30.06,0,0,0,0.00
2013-7-30,74,68,64,66,62,58,89,81,72,30.10,30.03,0,0,0,0.00
2013-7-31,81,69,61,68,60,53,94,76,50,30.08,29.99,0,0,0,0.00
2013-8-1,83,70,56,62,57,51,82,65,48,30.04,29.86,0,0,0,0.00
2013-8-2,78,69,59,62,56,52,83,65,42,30.04,29.86,0,0,0,0.00
2013-8-3,78,68,56,59,54,51,86,66,41,30.19,30.04,0,0,0,0.00
2013-8-4,78,66,56,63,55,51,86,69,48,30.22,29.99,0,0,0,0.00
2013-8-5,81,73,62,70,64,56,92,74,59,30.01,29.79,0,0,0,0.00
2013-8-6,84,70,59,71,62,55,90,78,55,29.85,29.67,0,0,0,0.00
2013-8-7,77,67,60,60,57,52,93,72,45,30.03,29.79,0,0,0,0.00
2013-8-8,77,65,58,62,58,53,86,77,58,30.06,29.98,0,0,0,0.00
2013-8-9,75,66,59,60,56,51,92,71,50,30.12,30.00,0,0,0,0.00
2013-8-10,77,68,61,58,56,54,84,66,49,30.19,30.07,0,0,0,0.00
2013-8-11,82,71,65,68,62,57,85,74,57,30.09,29.99,0,0,0,0.00
2013-8-12,78,69,60,62,59,54,90,70,49,30.06,30.00,0,0,0,0.00
2013-8-13,76,66,57,57,53,48,87,65,41,30.19,30.06,0,0,0,0.00
2013-8-14,78,66,55,59,53,50,87,66,43,30.20,30.09,0,0,0,0.00
2013-8-15,79,66,55,63,56,50,85,70,50,30.13,30.07,0,0,0,0.00
2013-8-16,80,69,57,63,57,52,87,68,46,30.19,30.12,0,0,0,0.00
2013-8-17,82,69,57,63,57,52,86,68,47,30.19,30.09,0,0,0,0.00
2013-8-18,85,70,58,64,58,53,84,67,48,30.13,30.00,0,0,0,0.00
2013-8-19,87,74,64,72,65,58,82,73,60,30.03,29.90,0,0,0,0.00
2013-8-20,90,78,70,76,70,65,87,77,63,29.92,29.86,0,0,0,0.00
2013-8-21,87,78,71,77,72,64,92,81,68,30.00,29.84,0,0,0,0.00
2013-8-22,86,75,66,64,57,52,74,55,38,30.11,30.00,0,0,0,0.00
2013-8-23,87,73,62,70,62,51,83,68,57,30.14,30.03,0,0,0,0.00
2013-8-24,89,78,70,75,70,66,87,76,60,30.05,29.93,0,0,0,0.00
2013-8-25,95,84,76,78,74,70,84,72,57,30.00,29.93,0,0,0,0.00
2013-8-26,94,84,76,80,76,72,89,76,61,29.98,29.84,0,0,0,0.00
2013-8-27,92,83,75,80,75,71,88,78,66,29.92,29.80,0,0,0,0.00
2013-8-28,92,81,73,78,73,70,93,78,59,30.01,29.91,0,0,0,0.00
2013-8-29,94,83,75,79,73,69,92,75,54,30.00,29.85,0,0,0,0.00
2013-8-30,85,76,71,71,68,64,88,75,59,29.94,29.83,0,0,0,0.00
2013-8-31,89,74,65,73,66,61,89,77,57,29.90,29.73,0,0,0,0.00
2013-9-1,74,68,60,65,61,54,89,78,64,29.99,29.74,0,0,0,0.00
2013-9-2,69,59,52,56,53,49,90,80,63,30.09,29.98,0,0,0,0.00
2013-9-3,79,64,51,63,56,48,91,76,55,30.09,29.99,0,0,0,0.00
2013-9-4,85,72,60,69,63,57,90,75,57,30.14,30.00,0,0,0,0.00
2013-9-5,86,73,64,71,63,56,85,71,61,30.20,30.09,0,0,0,0.00
2013-9-6,90,78,70,72,69,66,93,74,53,30.09,29.86,0,0,0,0.00
2013-9-7,91,79,68,73,69,64,90,72,51,30.00,29.86,0,0,0,0.00
2013-9-8,81,72,66,68,63,59,83,74,66,30.03,29.88,0,0,0,0.00
2013-9-9,92,78,68,77,70,65,93,78,52,29.88,29.63,0,0,0,0.00
2013-9-10,82,73,67,69,66,61,90,78,62,29.98,29.77,0,0,0,0.00
2013-9-11,83,72,62,64,59,52,88,66,39,30.06,29.98,0,0,0,0.00
2013-9-12,74,64,55,57,51,47,84,64,45,30.22,30.06,0,0,0,0.00
2013-9-13,71,59,49,51,48,44,83,66,48,30.27,30.07,0,0,0,0.00
2013-9-14,73,60,50,55,50,44,90,73,50,30.08,29.88,0,0,0,0.00
2013-9-15,67,60,52,58,54,46,92,83,67,30.30,29.87,0,0,0,0.00
2013-9-16,67,55,45,52,46,40,85,72,54,30.38,30.23,0,0,0,0.00
2013-9-17,68,57,48,57,51,43,93,81,68,30.23,29.93,0,0,0,0.00
2013-9-18,79,69,59,72,66,57,97,90,77,29.93,29.70,0,0,0,0.00
2013-9-19,76,70,63,71,66,55,93,86,74,29.82,29.65,0,0,0,0.00
2013-9-20,65,58,51,56,52,47,91,80,63,29.94,29.80,0,0,0,0.00
2013-9-21,64,54,46,51,47,44,91,79,59,29.99,29.90,0,0,0,0.00
2013-9-22,75,60,48,59,52,44,89,76,57,29.95,29.83,0,0,0,0.00
2013-9-23,74,63,54,58,53,49,84,71,53,29.93,29.85,0,0,0,0.00
2013-9-24,76,62,52,60,53,48,87,73,54,29.96,29.90,0,0,0,0.00
2013-9-25,74,62,52,58,53,48,89,74,54,29.97,29.85,0,0,0,0.00
2013-9-26,80,68,57,64,58,51,81,70,56,29.90,29.80,0,0,0,0.00
2013-9-27,84,73,67,67,63,60,81,71,53,29.91,29.78,0,0,0,0.00
2013-9-28,72,61,50,63,54,44,90,78,69,29.94,29.64,0,0,0,0.00
2013-9-29,76,59,46,54,47,41,85,67,42,29.95,29.78,0,0,0,0.00
2013-9-30,79,66,57,57,52,47,72,59,45,29.78,29.59,0,0,0,0.00
2013-10-1,73,65,53,54,46,38,71,52,29,29.99,29.59,0,0,0,0.00
2013-10-2,76,60,47,54,46,38,89,62,34,30.03,29.82,0,0,0,0.00
2013-10-3,61,58,55,58,56,53,93,91,88,29.93,29.83,0,0,0,0.00
2013-10-4,58,56,54,56,54,52,95,92,87,29.96,29.78,0,0,0,0.00
2013-10-5,60,54,43,58,50,40,96,85,66,29.84,29.74,0,0,0,0.00
2013-10-6,54,47,42,51,45,40,94,92,87,29.85,29.69,0,0,0,0.00
2013-10-7,65,53,44,49,45,41,90,75,49,29.97,29.83,0,0,0,0.00
2013-10-8,76,61,49,53,48,43,82,63,42,29.96,29.80,0,0,0,0.00
2013-10-9,75,63,56,56,51,48,76,65,50,30.02,29.91,0,0,0,0.00
2013-10-10,77,63,53,59,51,45,77,66,49,30.03,29.86,0,0,0,0.00
2013-10-11,73,65,56,61,55,50,83,72,57,29.86,29.61,0,0,0,0.00
2013-10-12,58,51,46,50,43,38,83,74,60,30.17,29.71,0,0,0,0.00
2013-10-13,59,48,38,42,38,33,85,69,47,30.41,30.17,0,0,0,0.00
2013-10-14,55,48,42,46,40,36,89,74,63,30.37,29.91,0,0,0,0.00
2013-10-15,53,50,46,52,48,43,94,92,89,29.91,29.65,0,0,0,0.00
2013-10-16,53,46,40,44,40,35,94,81,59,29.95,29.83,0,0,0,0.00
2013-10-17,57,46,40,45,40,35,90,79,59,29.87,29.76,0,0,0,0.00
2013-10-18,51,44,38,39,36,32,91,74,53,29.97,29.83,0,0,0,0.00
2013-10-19,47,40,34,40,35,29,88,83,73,29.83,29.68,0,0,0,0.00
2013-10-20,47,38,32,41,34,28,89,85,76,29.87,29.60,0,0,0,0.00
2013-10-21,40,35,31,32,25,23,80,67,57,29.95,29.87,0,0,0,0.00
2013-10-22,40,34,27,33,28,22,86,77,68,30.02,29.94,0,0,0,0.00
2013-10-23,38,35,32,30,26,22,84,72,59,30.09,29.98,0,0,0,0.00
2013-10-24,44,37,31,32,28,23,84,70,59,30.29,30.09,0,0,0,0.00
2013-10-25,57,43,26,43,34,22,86,73,59,30.29,29.78,0,0,0,0.00
2013-10-26,50,42,35,41,31,27,77,66,56,30.09,29.79,0,0,0,0.00
2013-10-27,56,42,31,38,31,25,81,67,50,30.11,29.80,0,0,0,0.00
2013-10-28,42,37,33,31,26,22,80,64,49,30.40,30.11,0,0,0,0.00
2013-10-29,43,38,33,36,30,25,85,72,67,30.37,30.06,0,0,0,0.00
2013-10-30,49,45,40,49,43,36,100,93,85,30.06,29.66,0,0,0,0.00
2013-10-31,49,42,40,49,40,37,100,93,87,29.66,29.41,0,0,0,0.00
2013-11-1,51,43,38,40,37,33,92,82,63,29.85,29.42,0,0,0,0.00
2013-11-2,48,39,33,37,33,30,89,79,64,30.06,29.85,0,0,0,0.00
2013-11-3,54,44,35,39,35,31,86,70,50,30.08,29.87,0,0,0,0.00
2013-11-4,49,44,34,44,37,31,89,78,65,30.16,29.82,0,0,0,0.00
2013-11-5,45,36,29,36,30,26,91,81,59,30.24,30.03,0,0,0,0.00
2013-11-6,37,32,28,31,27,23,91,83,72,30.17,30.03,0,0,0,0.00
2013-11-7,36,29,23,31,26,21,91,87,81,30.24,30.16,0,0,0,0.00
2013-11-8,44,36,24,39,30,22,91,79,61,30.20,29.62,0,0,0,0.00
2013-11-9,44,40,35,39,33,27,87,76,63,30.22,29.65,0,0,0,0.00
2013-11-10,40,37,33,32,30,27,80,75,70,30.33,30.09,0,0,0,0.00
2013-11-11,38,24,15,32,15,8,83,67,57,30.71,30.12,0,0,0,0.00
2013-11-12,28,19,12,15,11,7,81,71,56,30.76,30.42,0,0,0,0.00
2013-11-13,50,35,21,37,26,14,76,69,58,30.42,29.88,0,0,0,0.00
2013-11-14,52,40,34,42,34,29,84,77,66,29.88,29.77,0,0,0,0.00
2013-11-15,53,41,30,42,35,27,90,80,63,29.85,29.64,0,0,0,0.00
2013-11-16,49,44,38,47,41,34,95,90,77,29.65,29.26,0,0,0,0.00
2013-11-17,44,39,31,40,35,24,94,85,77,29.86,29.34,0,0,0,0.00
2013-11-18,34,29,23,25,22,19,83,75,65,30.25,29.85,0,0,0,0.00
2013-11-19,47,35,22,33,27,18,86,72,57,30.25,29.90,0,0,0,0.00
2013-11-20,45,42,38,34,32,28,84,66,55,30.03,29.87,0,0,0,0.00
2013-11-21,38,31,23,35,26,16,89,82,73,30.51,30.03,0,0,0,0.00
2013-11-22,34,22,12,16,12,3,81,67,39,30.63,30.44,0,0,0,0.00
2013-11-23,17,11,6,6,3,1,80,69,54,30.82,30.62,0,0,0,0.00
2013-11-24,31,19,6,17,10,0,77,68,55,30.68,29.98,0,0,0,0.00
2013-11-25,38,33,27,30,24,17,82,71,61,30.09,29.91,0,0,0,0.00
2013-11-26,30,20,12,22,9,4,73,61,53,30.37,30.08,0,0,0,0.00
2013-11-27,25,17,8,13,9,3,81,70,58,30.37,30.06,0,0,0,0.00
2013-11-28,26,21,13,16,13,7,79,69,63,30.49,30.05,0,0,0,0.00
2013-11-29,33,23,11,21,16,6,81,74,60,30.50,30.12,0,0,0,0.00
2013-11-30,41,31,24,30,24,20,85,76,65,30.16,30.02,0,0,0,0.00
2013-12-1,35,27,19,28,22,15,87,81,73,30.19,29.91,0,0,0,0.00
2013-12-2,39,33,28,33,30,24,92,86,76,29.91,29.57,0,0,0,0.00
2013-12-3,36,34,32,34,32,30,93,92,91,29.78,29.59,0,0,0,0.00
2013-12-4,32,27,12,30,25,7,93,90,82,29.77,29.49,0,0,0,0.00
2013-12-5,12,5,-3,7,0,-7,83,79,73,30.33,29.74,0,0,0,0.00
2013-12-6,3,-4,-8,-4,-9,-13,82,79,74,30.62,30.33,0,0,0,0.00
2013-12-7,0,-6,-13,-7,-12,-18,80,77,71,30.69,30.53,0,0,0,0.00
2013-12-8,17,8,-3,10,3,-8,84,80,74,30.53,30.02,0,0,0,0.00
2013-12-9,11,-1,-5,7,-6,-11,85,79,72,30.11,29.84,0,0,0,0.00
2013-12-10,14,7,2,10,2,-4,86,78,73,30.27,29.76,0,0,0,0.00
2013-12-11,4,-4,-8,-2,-10,-14,77,74,69,30.55,30.27,0,0,0,0.00
2013-12-12,19,12,1,12,6,-4,82,78,72,30.28,30.12,0,0,0,0.00
2013-12-13,18,14,12,11,8,7,84,78,71,30.26,30.10,0,0,0,0.00
2013-12-14,18,10,-1,11,4,-7,83,78,72,30.26,30.08,0,0,0,0.00
2013-12-15,5,2,-2,-3,-5,-8,76,72,66,30.14,30.09,0,0,0,0.00
2013-12-16,21,11,4,19,6,-3,90,79,71,30.10,29.91,0,0,0,0.00
2013-12-17,32,23,8,28,16,3,90,77,65,30.11,29.88,0,0,0,0.00
2013-12-18,35,24,7,27,18,2,85,80,73,30.06,29.65,0,0,0,0.00
2013-12-19,27,18,15,22,13,9,84,79,69,30.07,29.80,0,0,0,0.00
2013-12-20,21,16,13,15,12,9,85,82,76,30.02,29.85,0,0,0,0.00
2013-12-21,23,19,16,16,14,11,83,80,74,29.99,29.85,0,0,0,0.00
2013-12-22,18,13,2,13,8,-3,84,81,76,30.24,29.95,0,0,0,0.00
2013-12-23,2,-4,-10,-3,-10,-16,79,75,69,30.48,30.24,0,0,0,0.00
2013-12-24,12,-1,-17,6,-7,-23,82,74,62,30.46,30.11,0,0,0,0.00
2013-12-25,30,17,10,25,12,6,87,80,67,30.14,30.04,0,0,0,0.00
2013-12-26,31,20,8,25,16,4,88,83,77,30.16,30.05,0,0,0,0.00
2013-12-27,38,28,13,32,24,10,91,86,75,30.15,29.91,0,0,0,0.00
2013-12-28,42,29,18,34,26,14,92,86,71,30.02,29.65,0,0,0,0.00
2013-12-29,18,-2,-13,14,-9,-19,83,70,61,30.32,30.02,0,0,0,0.00
2013-12-30,2,-7,-14,-4,-12,-20,82,76,72,30.28,30.19,0,0,0,0.00
2013-12-31,-1,-8,-12,-6,-13,-18,82,77,67,30.41,30.26,0,0,0,0.00
2014-1-1,2,-4,-8,-7,-11,-14,75,70,65,30.49,30.40,0,0,0,0.00
2014-1-2,0,-7,-14,-10,-15,-20,75,68,58,30.52,30.38,0,0,0,0.00